Regional Weather Roundup
Issued by NWS Lake Charles, LA

Home | Current Version | Previous Version | Text Only | Print | Product List | Glossary On
Versions: 1 2 3 4 5 6 7 8 9 10 11 12 13 14 15 16 17 18 19 20 21 22 23 24 25 26 27 28 29 30 31 32 33 34 35 36 37 38 39 40 41 42 43 44 45 46 47 48 49 50
000
ASUS44 KLCH 210610
RWRLCH
RWRLCH
REGIONAL WEATHER ROUNDUP
NATIONAL WEATHER SERVICE LAKE CHARLES LA
100 AM CDT TUE APR 21 2015

Note: "fair" indicates few or no clouds below 12,000 feet with no
significant weather and/or obstructions to visibility.


ACROSS SOUTHEAST TEXAS

CITY           SKY/WX    TMP DP  RH WIND       PRES   REMARKS
BEAUMONT         N/A     61  56  83 N5        29.99F
BEAUMONT CITY    N/A     60  56  85 N3        30.00F
ORANGE           N/A     59  56  92 CALM      30.02S
JASPER         MOCLDY    59  57  94 CALM      30.04S
$$

ACROSS CENTRAL LOUISIANA

CITY           SKY/WX    TMP DP  RH WIND       PRES   REMARKS
LEESVILLE        N/A     56  54  91 N1        30.00F
FULLERTON        N/A     56  51  84 CALM      29.99S
ALEXANDRIA INT   N/A     56  55  97 CALM      30.00S
ESLER FIELD      N/A     54  52  93 CALM      30.01S
DERIDDER         N/A     57  55  92 CALM      30.03S
OAKDALE          N/A     56  54  95 CALM      30.01S
OPELOUSAS        N/A     58  55  89 CALM      30.00S
$$

ACROSS SOUTHWEST AND SOUTH CENTRAL LOUISIANA

CITY           SKY/WX    TMP DP  RH WIND       PRES   REMARKS
SULPHUR          N/A     59  53  79 N5        30.01S
LAKE CHARLES     N/A     59  54  83 CALM      29.99F
CHENNAULT INT    N/A     59  54  83 CALM      30.01S
CAMERON PHI    CLEAR     64  52  63 NE6       30.02S
DEQUINCY         N/A     55  55 100 CALM      30.01S
JENNINGS         N/A     59  53  82 CALM      30.00S
LAFAYETTE        N/A     62  52  69 CALM      29.99F
NEW IBERIA       N/A     62  56  80 N5        29.99F
ABBEVILLE        N/A     57  56  97 CALM      29.99S
PATTERSON        N/A     64  55  72 N5        29.99S
SALT POINT       N/A     63  56  78 CALM      29.97S
$$

SELECTED SITES ACROSS THE REGION

CITY           SKY/WX    TMP DP  RH WIND       PRES   REMARKS
HOUSTON BUSH   CLOUDY    62  54  74 CALM      29.99F
HOUSTON HOBBY  CLOUDY    66  53  63 CALM      29.98F
GALVESTON        N/A     68  54  60 NE8       29.99S
COLLEGE STAT   CLOUDY    63  49  60 NE3       30.01S
CONROE           N/A     57  55  93 NW3       30.01F
HUNTSVILLE     MOCLDY    60  57  89 CALM      30.01S
LUFKIN         MOCLDY    58  53  84 CALM      30.02S
SHREVEPORT       N/A     53  49  86 CALM      30.02R
MONROE           N/A     51  49  92 CALM      30.01R
NATCHEZ MS       N/A     54  50  87 CALM      30.00S
BATON ROUGE      N/A     58  55  90 CALM      29.99S
N.O. INTL ARPT MOCLDY    66  49  54 N5        29.97S
SLIDELL          N/A     60  56  86 CALM      29.97R
$$

MARINE REPORTS

STATION/POSITION TIME  TEMP    WIND        PRES    VSBY  WAVE
                       AIR SEA DIR/SP/G                  HT/PER
                 (UTC) (F)     (DEG/KT/KT) (MB)    (MI)  (FT/S)
BUOY 30 S HIGH I 0550   70 72   50/ 12/ 14 1014.5F         2/ 7
SEA RIM ST PARK  0600   65      20/  4/  4 1016.1F
PORT ARTHUR      0500      72   10/  2/  4 1016.0F
SABINE PASS N    0500   67 73   20/  5/  5 1016.0F
TEXAS POINT      NOT AVBL
CALCASIEU PASS   0500   66 73   60/  7/  7   N/A
LK CHARLES BEACH 0500   64 73              1016.2F
MARSH ISLAND     NOT AVBL
FRESH WATER LOCK 0500   66 78   10/  6/  7 1015.1F
AMERADA PASS     0500   65 71  350/  2/  6 1014.8F
$$



USA.gov is the U.S. government's official web portal to all federal, state and local government web resources and services.